Theta_e
298 287 287 287 288 290 291 291 292 293 289 289 288 287 287 286 289 291 292 293 293 290 288 290 289 289 291 292 294 295 294 292 294 295 296 296 296 296 296 298 299 299 301 302 302 303 305 307 308 309 310 311 312 315 316 317 317 316 315 313 313 313 313 312 312 311 312 311 308 307 311 312 310 311 308 309 308 313 312 313 314 316 318 321 323 324
293 288 290 291 294 292 293 292 290 290 289 289 287 287 286 287 287 291 291 293 291 291 286 286 287 288 290 292 292 293 292 293 293 294 294 296 296 297 297 298 298 299 299 301 300 301 302 304 305 306 309 309 310 312 314 315 316 316 313 313 314 311 312 313 313 312 312 312 313 312 311 307 309 309 309 308 304 309 309 309 311 313 313 316 319 321
287 287 288 293 293 292 291 291 289 290 289 288 286 285 285 286 289 292 291 291 292 290 287 285 287 290 291 292 293 292 294 297 297 296 297 296 295 295 296 297 299 298 299 298 300 301 302 303 304 306 307 309 312 311 312 313 312 312 311 312 312 311 312 311 311 311 311 308 307 309 305 310 304 305 306 307 304 305 308 308 309 311 313 315 316 318
285 287 293 294 292 292 291 289 289 287 287 286 286 284 283 285 289 285 287 290 293 290 287 286 287 291 293 293 293 295 295 296 296 295 295 295 296 295 296 297 299 298 298 298 300 302 301 302 304 304 305 307 308 308 308 310 310 311 310 310 310 310 310 309 309 309 307 308 305 301 304 306 305 302 301 303 305 306 308 309 309 309 313 315 315 314
287 291 294 293 292 292 290 289 288 287 286 286 287 284 285 289 290 287 288 289 289 290 291 289 287 287 288 289 289 292 294 295 296 295 294 295 296 297 297 296 297 298 298 299 299 300 300 302 303 304 305 305 307 307 308 309 310 312 310 309 309 308 308 307 307 308 307 306 303 300 301 300 300 300 301 301 302 306 308 308 307 309 310 312 312 312
289 291 295 293 293 291 290 289 288 286 286 284 287 289 288 288 289 291 291 288 282 281 286 289 279 278 282 286 288 291 288 291 291 293 294 295 296 295 296 297 297 298 297 299 300 302 302 303 302 301 302 304 305 306 307 308 309 310 308 308 308 307 307 307 306 307 307 307 305 302 302 301 299 299 300 303 305 304 306 307 307 305 308 310 311 310
289 293 294 292 291 289 289 288 289 288 283 284 285 292 291 290 289 288 287 285 280 279 288 289 281 279 283 288 291 291 291 292 291 290 294 296 296 294 296 297 298 299 298 298 298 300 300 301 301 301 302 303 304 304 304 305 307 307 307 307 307 307 306 306 306 307 306 305 304 304 303 302 303 302 300 301 304 304 304 305 305 304 304 307 308 308
291 292 291 291 290 288 287 288 291 289 285 282 288 291 291 291 290 289 286 285 281 282 285 288 285 279 282 288 288 291 289 289 289 290 292 294 296 296 294 296 297 298 297 299 300 299 301 302 302 302 302 302 303 303 304 305 305 306 306 306 306 306 306 306 306 305 306 305 303 303 302 301 301 301 300 301 302 304 303 304 303 302 302 303 306 307
292 289 291 290 289 286 286 287 291 290 286 286 292 291 291 291 289 288 286 283 285 282 280 280 287 281 278 283 287 288 287 286 288 291 292 293 293 292 294 296 296 298 299 299 299 298 299 301 301 300 301 301 302 302 304 305 305 306 306 306 305 305 305 305 305 304 303 304 304 304 303 302 301 301 300 300 300 301 302 302 300 301 300 300 302 304
292 291 292 292 290 287 289 290 291 291 289 292 292 292 291 289 288 286 281 285 280 278 278 282 285 277 281 282 287 286 285 286 288 290 291 292 292 291 296 297 298 298 298 298 298 297 297 299 299 300 301 301 302 303 304 304 304 304 305 305 304 304 304 304 304 304 303 303 303 303 302 303 301 301 300 300 299 299 301 301 299 299 298 298 298 300
293 295 295 293 290 290 289 292 291 292 291 292 290 290 287 285 282 281 280 279 278 274 277 283 286 282 278 281 283 286 287 288 290 288 288 296 297 297 297 296 297 298 297 297 297 296 297 297 298 299 300 301 300 301 303 303 304 304 304 304 304 303 304 303 303 303 302 302 303 303 303 303 302 301 301 300 299 299 300 301 298 298 297 297 298 298
292 292 292 292 294 292 291 291 291 292 292 291 287 282 281 280 278 278 278 277 275 273 277 282 286 283 276 277 283 287 287 288 290 294 293 297 299 298 297 297 296 296 297 296 295 296 296 296 297 298 299 299 301 301 303 303 303 303 304 304 303 302 302 302 302 302 302 302 302 302 302 302 303 303 303 302 301 300 300 301 299 297 296 295 296 296
287 287 290 293 294 293 288 289 288 286 289 289 285 283 278 275 276 274 275 275 273 275 280 280 283 282 282 284 288 288 290 289 290 292 294 296 297 297 296 297 296 294 296 296 294 294 294 295 296 297 298 298 300 302 303 303 303 303 303 303 303 301 301 302 301 302 302 301 301 302 302 303 303 304 303 302 302 300 301 300 299 296 296 295 294 294
283 284 291 291 291 294 291 288 284 285 288 286 285 280 276 273 272 268 269 271 272 277 279 283 285 282 283 286 289 293 295 292 290 290 292 296 297 297 298 296 295 295 295 297 295 294 294 295 295 296 297 299 300 301 302 302 302 302 303 302 303 301 300 301 300 301 301 301 302 302 302 303 303 304 304 304 303 301 301 301 300 297 297 295 295 295
278 279 285 288 286 292 292 291 290 286 288 288 285 286 281 275 272 269 270 272 274 277 279 280 280 278 277 283 288 290 291 290 291 292 292 292 293 295 295 295 295 294 294 294 295 296 296 296 295 296 297 298 299 300 301 301 301 301 302 301 301 300 299 300 300 300 300 300 300 301 302 302 303 304 303 304 304 301 301 301 300 298 298 297 297 297
283 282 282 293 291 293 292 292 291 288 287 286 286 285 278 282 277 274 271 272 271 274 275 277 279 279 283 286 289 289 290 292 291 288 291 295 294 295 297 297 296 296 296 295 295 295 295 296 296 296 296 297 298 299 300 301 301 301 301 301 302 302 300 299 299 299 300 299 300 300 301 302 302 302 302 303 302 301 302 301 300 298 297 298 298 298
282 279 287 292 291 293 293 292 291 291 281 283 287 283 284 284 284 278 276 279 275 273 276 274 280 283 284 287 291 295 294 293 291 289 289 291 292 293 296 296 295 295 295 295 296 296 298 296 296 296 296 296 297 299 301 301 301 301 301 301 301 300 299 298 298 299 299 299 298 299 300 301 302 302 302 302 302 300 300 300 300 299 298 298 298 297
283 279 286 288 288 290 290 291 292 290 288 286 282 285 290 288 285 280 274 273 273 273 275 276 278 280 276 281 283 284 287 288 288 290 292 292 291 291 293 292 293 293 293 295 297 298 299 299 298 297 296 296 298 299 300 301 301 301 301 301 301 300 299 299 298 298 298 297 297 298 299 300 302 303 303 303 301 300 299 299 299 299 297 296 296 296
287 279 283 287 287 289 291 293 291 292 292 286 282 289 287 279 279 280 275 273 270 268 271 274 278 280 281 284 287 285 284 286 288 288 289 291 292 293 294 293 292 291 295 293 295 298 298 297 297 297 297 296 297 298 300 300 301 301 300 300 301 301 301 300 299 297 297 297 298 298 298 299 300 301 301 301 301 300 299 298 298 298 298 297 296 295
286 281 280 286 287 289 288 288 283 285 289 290 290 289 287 282 277 277 280 273 275 271 270 274 277 279 284 284 285 287 287 288 291 288 289 291 292 293 293 293 294 293 294 295 296 297 297 297 296 297 297 297 297 297 299 299 299 300 301 300 299 299 299 298 298 297 296 296 296 296 296 297 299 299 300 299 299 299 299 299 298 298 297 297 295 295
285 283 276 283 284 287 284 286 284 288 286 286 285 284 287 284 284 280 282 279 276 268 269 270 274 278 285 286 288 288 289 290 290 290 291 292 293 292 292 293 293 294 295 296 297 296 296 296 294 295 295 296 295 296 297 299 300 300 299 299 299 299 298 298 298 297 297 296 295 295 295 296 297 298 298 298 298 299 299 298 297 297 296 294 293 293
283 283 279 281 282 283 284 288 290 290 292 290 289 286 288 284 280 276 276 281 275 277 271 269 275 282 288 289 291 290 290 288 288 290 291 291 291 291 292 294 295 295 295 296 296 294 295 293 293 293 292 291 294 295 295 299 298 298 298 299 299 298 299 298 298 297 296 295 295 294 294 294 294 295 295 295 296 298 298 297 295 295 292 291 291 291
290 283 280 278 283 286 287 287 290 291 291 290 290 288 290 287 285 278 276 274 276 278 275 273 274 283 289 290 288 289 289 294 293 289 290 292 291 292 295 294 294 294 296 295 295 294 294 293 294 293 293 294 294 295 294 295 298 299 297 297 297 298 298 297 298 297 296 295 294 294 293 292 291 292 291 292 293 294 295 295 295 293 292 291 289 289
294 284 281 279 284 284 289 289 289 289 291 289 289 286 285 285 284 284 281 277 280 276 279 276 276 283 290 289 292 291 289 289 290 291 293 292 293 294 295 295 295 295 295 294 293 293 293 291 291 291 291 293 294 293 295 296 297 298 298 298 297 297 296 295 296 295 294 294 293 291 290 290 290 290 291 291 291 291 291 293 293 292 292 290 289 289
286 283 284 276 274 278 281 284 286 286 288 282 282 286 287 287 286 282 280 278 280 279 282 278 276 282 287 286 291 289 291 293 292 289 292 294 292 291 293 293 293 292 292 292 293 293 292 291 291 293 293 294 294 294 295 296 297 298 298 297 297 297 296 296 295 294 294 292 291 289 290 290 289 290 290 291 290 290 289 289 290 289 290 289 289 289
290 285 284 278 276 275 272 277 276 279 285 284 282 285 289 288 285 284 281 280 279 279 280 279 281 287 290 289 290 289 287 290 290 290 291 293 292 294 295 294 293 292 294 293 293 290 293 295 293 292 292 293 294 295 296 296 297 297 297 297 296 297 296 296 294 294 293 291 291 290 289 290 289 290 290 290 290 289 289 289 288 288 288 289 289 288
286 285 287 285 283 281 281 277 281 286 282 283 283 286 287 288 288 287 282 281 281 284 282 283 285 287 288 290 287 288 287 290 290 290 291 292 292 291 290 292 292 293 293 294 294 293 290 290 293 294 293 294 294 294 295 296 296 296 296 296 296 297 297 295 294 293 292 291 291 291 290 290 290 290 290 290 290 289 288 288 288 288 288 288 288 287
286 286 287 286 285 286 284 286 289 289 286 287 286 285 287 287 287 286 284 283 287 280 280 286 286 284 287 290 290 288 289 289 289 290 291 291 291 293 293 291 293 291 293 293 291 292 294 295 294 293 293 293 294 294 294 294 295 295 296 296 296 295 295 295 293 293 292 291 291 292 291 291 290 290 290 289 289 288 288 288 287 287 287 287 288 286
286 284 284 286 284 287 287 287 288 289 287 287 287 286 285 286 285 285 286 288 287 283 282 287 285 285 288 290 290 289 291 292 291 293 293 293 291 291 291 292 293 293 294 293 295 296 296 296 296 295 293 293 291 291 292 292 292 292 293 294 294 293 294 292 292 293 292 292 292 293 292 291 290 289 289 289 288 288 287 287 286 286 286 287 288 287
288 286 286 284 284 286 285 285 287 288 286 286 286 286 286 285 286 287 288 289 289 286 288 288 288 286 289 291 291 290 291 291 292 292 292 292 293 293 292 292 293 294 295 296 297 298 299 298 295 295 294 292 292 292 292 292 292 293 293 293 292 292 293 291 293 293 292 292 293 293 291 290 289 289 289 288 288 287 287 286 285 285 285 286 287 287
290 286 288 285 284 285 287 286 286 287 286 285 287 287 287 287 286 286 287 288 288 288 289 289 287 287 293 293 292 294 295 293 292 293 294 294 294 293 293 293 295 296 297 297 297 298 298 296 295 294 294 294 293 293 294 294 294 293 292 292 292 293 292 291 292 293 293 293 294 293 290 290 289 288 288 288 287 287 286 285 285 284 284 284 285 286
290 285 286 285 284 285 288 287 286 285 286 286 286 287 288 287 285 286 286 289 287 286 288 287 286 287 293 293 294 295 293 292 294 295 296 294 293 293 294 295 295 295 296 297 298 297 295 295 296 296 296 296 296 294 294 293 293 292 292 293 293 293 291 291 292 293 293 293 293 291 290 290 288 288 288 287 287 286 285 284 284 284 284 284 284 285
287 286 284 284 282 283 285 284 284 285 285 283 284 287 289 289 290 291 292 293 291 291 286 285 287 293 294 294 291 294 295 294 295 295 296 295 293 293 294 295 296 296 296 297 296 296 296 297 297 297 297 296 296 296 295 295 293 292 293 293 294 291 290 291 292 293 293 293 292 291 290 288 288 287 287 287 286 285 284 283 283 283 283 283 284 285
287 287 285 286 282 283 283 282 285 284 278 280 291 292 292 289 290 288 289 291 293 293 291 293 293 295 296 296 295 295 295 296 297 299 299 296 294 292 293 294 295 295 296 296 296 296 296 297 297 296 295 295 295 295 295 293 294 295 294 292 289 290 291 291 291 292 292 291 290 290 288 288 287 287 287 286 285 284 283 283 283 283 283 283 283 284
286 287 285 286 282 281 283 284 282 277 279 289 292 293 294 293 292 291 292 292 293 294 295 294 295 296 297 298 298 298 298 299 299 298 298 294 294 295 296 296 297 296 296 296 296 297 297 296 295 294 294 294 294 293 292 292 292 292 289 290 290 290 290 291 291 291 291 291 289 288 288 288 287 287 286 285 284 284 283 283 282 282 282 283 283 283
286 286 286 285 285 285 282 282 276 277 285 287 288 291 290 290 290 289 287 291 293 294 295 293 295 296 297 297 298 299 298 297 294 293 293 292 295 297 295 294 295 295 295 296 296 296 296 296 295 294 295 294 291 293 290 293 290 289 290 287 289 288 289 289 289 290 289 290 289 288 288 287 287 287 285 284 284 283 283 282 282 282 282 282 281 282
289 287 287 284 287 281 283 282 281 286 285 287 287 287 287 286 287 288 285 288 294 295 295 294 295 296 297 297 297 298 296 293 293 294 292 291 292 292 293 293 293 295 294 295 294 294 295 292 290 291 289 289 289 290 291 288 288 288 287 287 288 288 288 288 289 289 290 289 289 288 288 287 287 286 284 284 283 283 282 282 281 281 281 281 281 281
291 287 287 285 283 286 282 280 280 280 277 283 289 291 290 292 293 293 289 287 294 295 296 295 294 296 296 296 295 295 293 291 291 290 291 290 290 292 292 291 290 291 290 288 289 289 290 289 287 287 286 289 289 288 286 284 286 287 286 287 286 286 287 287 289 289 289 289 288 288 287 287 286 285 284 283 283 283 282 282 281 281 281 282 281 281
289 291 287 286 284 284 282 279 279 277 280 287 288 288 290 292 294 291 288 284 291 291 294 295 295 295 294 294 293 292 290 288 289 288 290 289 289 288 289 291 290 289 290 288 286 287 287 289 287 287 287 286 288 288 284 284 286 286 286 286 285 285 287 288 289 288 288 288 287 286 286 286 285 285 284 283 283 282 282 281 281 281 280 281 281 281
287 287 286 283 282 284 282 280 278 282 281 285 285 285 284 288 294 290 281 281 289 286 288 289 289 289 289 289 289 290 290 287 288 289 287 288 288 288 287 290 291 291 291 290 288 286 285 284 286 289 289 288 287 286 284 284 285 285 287 286 284 285 287 288 288 287 286 285 285 285 285 285 285 284 284 283 282 282 282 281 280 280 280 280 281 281
285 285 286 281 283 283 284 282 284 284 287 286 285 284 286 289 292 283 278 285 287 286 287 287 287 289 288 287 288 287 286 289 291 290 286 286 286 289 288 287 288 288 288 289 290 288 286 286 284 286 287 287 285 283 282 284 285 286 285 284 283 286 288 286 284 284 284 284 284 284 284 284 284 284 283 283 282 281 280 280 280 279 279 279 280 280
285 285 284 285 282 282 283 281 281 284 284 287 285 286 288 290 281 281 287 287 287 287 287 286 287 287 287 287 288 288 289 288 287 286 285 285 287 287 287 288 289 291 291 289 288 286 287 287 286 285 285 284 283 282 282 283 284 286 285 284 285 287 284 283 283 282 282 283 283 282 282 282 282 283 282 280 280 279 278 277 279 279 279 279 279 280
284 284 281 282 285 285 283 280 279 275 285 289 288 286 289 284 284 287 287 286 286 287 286 288 287 288 287 288 287 287 287 287 287 288 288 287 286 287 289 289 289 289 289 289 291 291 286 287 288 288 287 286 283 282 281 282 283 284 283 284 286 284 281 282 281 281 281 281 281 281 281 281 281 281 280 279 280 279 278 277 278 278 278 278 279 279
288 282 282 285 288 280 281 278 278 285 288 287 288 283 284 286 288 286 287 286 287 286 285 287 286 287 289 287 287 287 287 286 287 288 288 289 287 287 287 288 288 287 288 288 287 288 286 287 288 288 287 286 283 281 281 282 284 284 283 285 284 281 280 280 280 280 280 280 280 279 280 280 280 280 280 280 279 279 278 278 278 278 278 279 279 279
285 283 285 282 285 285 282 285 287 287 286 286 288 286 290 290 286 287 286 285 285 286 286 286 288 287 286 288 287 286 286 287 287 287 286 288 288 287 287 288 287 288 288 288 288 288 286 287 287 286 287 287 284 282 281 280 283 283 284 284 281 280 280 280 280 281 280 279 279 279 279 279 280 279 279 280 280 279 279 277 277 277 277 278 278 279
282 286 283 283 281 283 283 284 283 283 285 287 289 287 289 288 287 286 286 287 286 286 287 287 286 286 285 285 286 284 285 286 287 288 288 288 288 288 286 286 286 287 287 287 288 288 287 286 285 285 286 288 287 284 282 281 281 283 285 281 280 280 281 281 280 280 280 279 280 280 279 279 279 279 279 279 280 280 279 278 278 277 277 277 277 278
282 283 284 281 280 283 279 285 284 285 285 286 288 288 287 286 288 286 287 286 289 285 286 285 287 287 287 286 286 285 286 286 286 287 287 288 288 288 287 287 288 288 288 288 289 288 288 287 287 287 287 288 289 287 285 284 283 284 284 282 281 281 281 281 282 281 280 280 279 279 279 280 279 279 278 278 279 279 279 278 278 277 277 277 277 278
280 280 281 278 280 280 279 283 282 283 284 285 285 286 287 288 287 285 285 285 285 286 286 288 287 287 286 286 286 285 286 286 285 287 287 287 287 288 288 288 288 288 288 288 288 288 287 287 287 287 287 287 289 288 286 285 285 285 284 282 281 282 282 282 282 282 280 280 280 280 280 280 279 280 279 279 279 279 279 279 279 278 278 278 278 277
279 283 275 277 281 279 280 282 280 282 283 284 283 284 284 285 285 284 285 285 285 286 285 283 284 285 285 285 285 285 285 286 286 286 287 287 287 287 288 288 288 288 288 287 287 286 287 287 287 287 287 287 288 287 286 285 285 284 283 283 283 283 283 283 283 282 280 280 280 280 280 280 279 280 280 280 280 280 280 279 279 279 279 280 280 279
281 279 278 278 274 275 279 281 282 281 277 282 280 284 283 283 283 283 282 282 282 282 283 282 283 283 284 284 284 284 283 285 284 284 285 286 286 286 287 287 287 287 287 287 286 284 284 284 285 286 286 287 287 286 286 285 284 284 283 283 283 283 283 283 283 282 281 281 280 280 280 279 279 279 278 278 278 277 276 278 281 280 279 278 280 281
279 279 279 276 276 276 280 280 280 281 280 281 283 281 282 281 282 283 282 281 282 282 282 283 283 283 284 284 284 284 283 283 284 283 283 285 285 286 285 285 285 286 286 287 286 286 285 285 284 284 284 286 286 285 285 284 284 283 282 282 283 283 283 283 282 282 281 281 280 280 280 279 278 278 278 278 278 277 277 276 279 282 282 281 281 282
Wind_Speed
1 3 4 4 7 7 4 6 7 4 6 4 3 4 2 3 1 1 0 1 0 0 5 7 7 6 8 10 12 11 6 5 7 9 10 9 9 9 8 9 11 11 14 9 8 8 11 12 10 8 7 8 7 7 8 10 10 12 13 11 12 9 9 9 9 8 8 8 5 3 7 7 6 7 4 4 4 5 4 4 5 5 6 5 4 5
5 4 3 6 6 7 8 4 4 4 4 4 4 3 2 1 2 1 1 1 3 1 2 1 4 9 11 10 11 10 7 11 9 10 10 13 12 10 10 12 12 13 5 3 5 7 7 7 6 6 6 7 9 8 9 12 14 12 10 13 12 8 9 10 10 9 8 8 9 9 8 6 6 7 7 6 3 5 3 4 4 4 4 4 4 5
2 4 5 7 4 2 4 6 4 4 4 3 3 2 2 1 1 1 1 2 1 1 7 3 5 11 11 10 9 8 12 13 10 11 12 12 10 8 9 11 13 8 9 6 7 6 7 7 7 7 7 8 11 10 10 9 6 6 8 10 9 9 10 9 8 8 9 5 4 5 4 6 3 1 3 4 3 3 4 3 4 4 5 5 4 5
2 4 10 5 3 4 2 5 6 5 5 4 3 2 3 2 1 3 1 1 1 2 3 1 5 14 13 7 11 14 12 12 9 6 8 7 10 10 12 13 11 11 10 9 9 8 5 6 7 6 7 9 7 7 6 7 9 8 7 7 7 8 7 7 7 7 4 5 4 3 3 4 4 4 3 3 4 4 4 5 4 4 5 5 5 5
6 2 1 4 2 3 2 1 4 2 1 2 2 2 1 1 0 3 1 1 1 2 1 4 5 10 7 4 5 7 6 9 12 8 7 9 9 10 8 7 8 11 10 10 7 4 4 6 8 12 11 7 9 9 10 9 9 9 10 8 7 6 6 5 6 6 6 6 4 4 5 4 5 4 3 3 4 5 5 4 5 6 4 5 5 5
5 4 1 5 2 3 4 1 1 6 0 1 2 4 4 2 4 1 2 2 7 3 1 1 6 5 5 4 6 9 5 4 3 3 10 12 10 7 9 12 8 6 5 8 9 9 9 9 6 5 5 8 8 8 8 7 8 6 6 6 6 6 6 7 7 8 8 8 8 7 7 7 5 6 6 10 10 7 8 8 3 3 5 5 6 5
6 1 3 5 3 3 3 2 2 4 3 1 2 1 3 4 5 3 1 2 2 0 1 1 1 10 5 10 9 10 10 14 10 7 10 10 11 6 9 7 7 7 5 3 3 4 5 5 6 6 7 8 8 7 5 5 6 6 6 7 8 8 7 7 8 9 8 7 7 9 8 6 8 8 5 2 3 5 4 4 5 5 4 5 6 6
2 2 5 3 4 3 3 2 2 6 6 2 1 1 2 3 2 2 5 3 3 2 4 1 4 4 10 12 5 12 10 10 8 11 13 13 11 9 5 5 7 7 5 6 6 6 7 9 11 12 9 7 9 6 5 6 5 7 8 8 8 7 8 7 8 9 9 9 7 7 6 6 6 7 6 5 4 4 4 5 5 5 5 5 5 6
2 3 3 2 1 2 5 3 2 6 5 2 1 5 4 5 4 4 4 2 0 3 8 3 0 3 6 10 5 1 7 5 9 13 14 12 10 6 4 8 6 5 5 5 5 6 6 8 7 5 6 6 5 6 7 7 7 7 7 8 7 8 8 7 8 9 7 8 9 9 8 7 6 6 6 6 5 5 5 5 4 5 5 5 4 5
2 4 5 7 5 4 3 1 1 6 3 2 1 3 5 6 5 4 2 2 3 2 8 3 3 2 11 5 5 1 1 6 9 10 9 9 9 7 5 3 3 2 1 1 2 3 4 5 5 6 5 6 8 7 6 6 5 6 6 8 8 8 8 8 8 8 8 8 8 8 8 9 7 6 5 6 6 6 6 6 6 5 5 5 5 5
0 1 3 4 4 4 5 1 1 1 3 5 6 7 5 7 4 3 5 2 3 4 6 8 8 4 8 4 6 4 5 6 2 3 4 3 1 1 3 5 5 5 3 2 1 1 1 1 5 5 7 8 5 5 6 6 7 6 8 8 9 8 8 8 9 9 9 8 8 9 9 9 9 7 7 7 7 6 7 7 7 7 6 6 6 5
2 2 1 1 3 4 3 5 6 2 4 5 2 3 4 2 5 3 2 5 1 8 3 4 8 4 6 5 6 7 4 3 4 0 3 1 1 3 5 5 5 5 5 4 3 2 2 4 3 4 6 6 7 6 7 6 6 7 7 8 9 7 8 8 8 9 9 9 9 8 9 9 9 8 8 9 9 9 10 9 8 6 5 6 5 5
1 2 1 2 2 8 4 8 4 5 2 5 7 7 5 2 3 3 2 2 5 7 0 1 5 2 15 5 4 7 10 3 4 2 1 3 4 5 5 5 5 4 2 4 4 4 3 5 5 5 5 5 7 8 8 8 8 7 8 9 10 8 8 9 9 10 10 10 10 9 9 9 8 9 8 9 9 8 9 8 7 7 7 5 6 6
5 2 1 1 4 2 6 9 2 2 1 6 8 7 5 2 1 4 4 2 4 6 4 0 1 6 3 5 8 11 11 7 4 3 4 5 6 6 6 5 5 4 5 5 5 5 5 5 5 5 6 6 6 6 7 7 7 7 7 8 10 9 8 8 9 10 10 11 10 9 9 9 8 9 9 9 9 9 8 7 8 8 8 7 8 8
1 4 6 4 2 3 4 8 12 9 9 9 3 10 9 8 5 5 3 5 7 7 1 3 1 7 2 4 1 6 9 6 4 3 4 5 5 5 4 4 3 4 5 5 5 6 6 6 6 6 6 6 6 6 7 6 6 6 7 8 9 9 9 10 11 9 11 10 9 9 9 9 8 9 8 8 8 9 9 8 8 8 7 8 8 9
11 6 5 12 1 10 11 4 6 6 2 2 3 6 4 10 5 4 5 4 2 1 1 1 6 5 5 3 6 4 5 9 8 4 3 6 6 3 0 3 6 7 6 5 5 5 5 6 7 6 6 7 6 6 6 6 6 7 7 8 10 11 10 10 10 10 10 9 8 8 9 10 9 8 7 7 7 8 9 9 8 8 8 8 8 7
2 3 2 2 4 13 9 5 4 6 5 4 5 8 8 5 5 1 1 0 2 3 10 2 7 8 7 9 11 16 11 10 5 7 7 7 3 2 6 7 7 7 5 5 6 6 7 6 7 8 7 5 5 6 8 8 8 8 8 8 9 8 7 9 10 10 9 8 8 8 8 8 9 10 10 10 9 9 8 8 8 8 8 8 7 6
9 5 2 3 4 3 0 1 1 2 3 7 5 6 2 2 4 5 5 2 1 6 8 3 10 9 5 14 3 3 1 3 3 8 9 9 8 6 7 6 6 5 4 6 6 7 9 9 8 6 6 6 7 7 7 8 7 7 8 8 9 8 10 9 9 9 8 9 8 8 8 8 9 9 9 10 10 9 9 8 7 6 6 7 7 7
5 3 2 0 1 5 3 2 3 1 1 6 5 3 7 4 2 2 4 4 2 2 5 5 4 8 9 15 1 4 5 6 6 6 7 9 11 10 10 8 6 5 2 1 5 8 9 8 7 7 8 7 6 6 7 7 7 7 6 7 9 11 10 9 8 7 7 7 7 7 8 8 8 8 7 6 7 8 9 9 8 8 8 7 6 7
2 5 3 2 2 2 1 4 9 5 3 0 3 2 1 4 3 5 8 4 6 6 1 10 0 10 7 5 5 7 6 7 9 6 7 11 11 9 7 6 6 5 3 5 5 7 7 7 7 8 9 9 9 8 7 7 6 8 9 8 8 6 6 6 8 8 9 8 7 7 6 7 7 6 7 7 6 8 9 9 9 9 8 8 7 7
3 3 6 1 3 2 2 4 8 10 9 3 2 3 1 0 2 4 1 4 5 3 4 3 9 10 7 7 5 7 8 9 8 8 8 9 9 8 6 6 5 5 5 6 6 5 6 6 5 6 6 7 6 5 6 7 9 9 7 8 8 10 9 9 8 7 7 7 8 7 8 8 7 8 7 6 8 8 8 8 9 9 8 6 8 7
3 2 6 2 1 5 8 5 10 14 15 12 13 11 13 8 4 4 9 1 3 3 4 3 12 12 9 6 8 9 8 5 6 8 8 8 8 7 6 6 5 3 4 5 5 5 4 4 5 5 5 4 5 7 7 7 6 7 8 9 8 8 9 9 8 7 7 7 7 8 8 8 7 7 6 7 8 9 8 7 8 8 7 8 7 8
8 4 6 6 9 11 7 4 2 3 4 2 4 8 8 7 6 5 7 5 1 4 2 3 1 21 3 8 5 6 4 4 2 5 3 4 7 6 5 3 2 3 4 4 4 5 5 5 5 5 6 6 7 7 7 7 8 9 8 8 8 9 9 7 7 7 7 8 8 8 7 7 7 7 7 9 8 8 8 7 7 7 9 8 8 7
4 3 2 3 1 2 1 2 3 2 1 3 5 1 3 5 6 8 7 7 7 2 4 3 5 17 3 4 1 2 5 5 5 6 5 4 3 3 2 2 5 3 2 4 3 2 2 2 1 2 5 6 7 7 8 8 7 9 9 10 8 10 8 7 7 7 7 7 8 7 7 8 7 8 9 10 9 9 8 8 7 7 8 8 8 9
5 3 7 2 1 1 2 3 2 3 1 1 2 3 4 4 3 3 2 1 3 8 10 8 13 15 3 1 2 2 1 1 4 4 1 3 3 2 2 2 2 3 3 3 4 4 1 1 4 7 7 8 7 7 8 9 10 10 10 8 9 9 8 9 8 8 8 8 8 8 9 9 9 9 10 10 8 9 7 7 8 7 8 8 8 8
7 5 8 8 11 11 7 9 8 6 8 4 3 5 7 10 7 4 6 3 7 6 8 7 11 16 11 2 4 3 4 3 4 5 4 0 4 3 3 3 4 3 4 5 5 5 6 8 6 6 8 7 8 9 10 10 10 10 8 9 8 9 9 9 8 8 8 8 9 9 10 10 9 11 11 10 9 9 8 8 7 8 7 8 10 9
3 1 6 10 13 14 10 3 6 6 4 5 5 9 7 8 11 9 4 6 14 13 10 9 14 18 20 14 4 3 2 2 4 6 4 5 5 5 5 4 4 4 4 5 5 5 5 5 10 12 9 10 9 9 9 10 10 9 9 9 9 9 9 9 8 8 8 9 9 9 11 11 12 11 10 10 9 8 8 8 8 8 8 8 9 9
2 3 6 6 7 5 3 2 1 10 10 12 12 10 12 10 10 12 12 16 13 4 13 13 13 11 22 21 10 6 6 7 6 5 6 5 5 4 4 4 5 4 6 5 5 6 9 11 10 9 11 10 11 9 8 9 9 9 10 11 10 9 9 8 8 8 9 9 10 11 12 11 10 10 10 9 8 8 9 8 8 8 7 8 9 9
3 2 3 1 4 3 2 0 2 1 3 3 7 9 10 10 8 14 18 19 10 10 17 15 7 12 20 20 6 5 8 8 5 7 7 6 4 5 6 6 6 6 7 7 9 9 9 11 10 10 8 8 6 8 10 9 9 8 8 9 8 8 11 8 9 10 10 10 11 13 11 8 8 8 8 8 8 9 9 9 8 7 8 8 9 7
2 3 0 3 4 6 1 3 3 1 1 2 1 3 5 7 13 16 17 16 15 13 13 15 12 13 12 15 4 4 6 4 5 5 3 2 6 6 6 6 7 8 8 9 9 10 11 11 9 9 8 7 9 11 10 11 11 11 11 10 7 8 8 7 10 11 10 11 13 12 8 9 8 9 8 9 10 9 9 9 8 8 8 9 9 8
2 3 5 2 2 8 8 4 4 3 2 3 6 5 7 8 9 11 9 10 9 12 14 16 15 17 16 8 5 9 10 4 5 7 7 7 6 6 6 7 8 9 9 8 10 12 12 10 9 9 8 9 9 11 12 11 11 9 9 9 10 11 9 7 9 10 10 13 13 9 8 8 9 8 10 10 9 8 9 9 8 8 8 8 8 9
2 2 3 2 3 9 9 5 4 4 4 6 10 13 15 13 8 4 7 8 9 14 13 9 12 17 16 2 7 13 5 3 10 11 10 5 5 6 8 9 9 8 9 11 11 10 10 10 10 10 10 11 10 10 9 10 10 8 11 12 11 12 7 8 10 11 12 13 10 8 10 9 8 9 9 8 10 9 8 8 8 9 9 8 8 8
4 6 5 4 4 7 4 3 2 4 2 4 12 21 18 11 11 10 10 10 12 9 8 10 16 14 13 6 4 10 12 10 11 11 11 10 6 6 7 10 9 8 9 9 10 9 10 10 10 10 10 9 9 9 10 11 7 10 13 13 13 5 7 10 11 11 11 10 9 9 9 7 8 9 8 9 8 8 8 9 9 10 9 11 8 6
5 7 5 4 5 2 1 3 4 4 10 11 8 4 10 14 15 17 18 18 15 10 8 10 10 9 11 14 14 13 14 13 14 16 11 5 3 4 7 9 9 9 9 9 9 9 9 9 9 9 8 8 8 8 8 6 10 12 9 7 3 8 9 9 10 10 11 9 8 8 7 7 8 9 9 8 8 8 9 10 11 10 8 7 7 9
9 7 5 3 4 4 2 2 1 11 10 3 1 6 12 15 15 18 17 15 14 14 14 14 15 17 20 18 15 15 15 16 14 12 11 3 2 7 9 11 11 10 10 9 9 9 9 8 8 8 9 9 8 7 6 7 8 8 4 6 7 7 8 9 9 9 9 9 7 6 7 9 9 9 8 9 9 9 10 11 9 8 8 9 10 10
9 9 4 2 3 0 4 6 9 7 1 3 7 6 1 1 1 1 6 10 13 15 15 14 16 18 18 19 17 15 12 11 7 5 2 1 6 10 7 6 7 8 8 8 7 9 9 9 8 8 9 7 6 7 5 7 4 4 7 4 6 6 7 7 7 9 7 9 8 9 9 9 9 9 8 8 8 9 10 9 10 10 8 7 6 6
13 5 5 5 5 8 5 9 12 5 10 9 9 6 6 5 7 10 9 10 13 13 12 14 16 16 17 16 15 12 8 5 8 6 6 3 5 6 3 4 5 6 6 7 6 9 9 7 6 7 6 7 6 7 7 5 2 3 3 4 6 7 6 7 9 10 11 10 9 10 9 9 9 8 8 9 9 10 10 10 9 8 6 7 7 8
11 13 7 8 6 9 8 7 3 5 10 13 16 7 4 7 6 6 7 9 4 8 12 14 15 16 16 12 8 9 2 4 11 3 5 7 5 7 8 5 5 6 5 5 6 6 7 6 5 5 4 6 7 6 5 4 2 2 3 5 4 4 5 6 10 10 9 9 9 8 7 8 9 9 9 9 11 11 9 7 6 8 8 10 9 8
4 6 5 13 6 7 9 9 9 9 9 8 9 5 8 9 10 4 3 10 6 3 6 11 15 12 9 7 8 3 1 6 9 1 3 6 7 5 6 8 6 6 7 5 3 6 6 8 7 8 6 5 7 8 5 3 1 2 4 5 5 4 6 9 10 8 9 9 7 6 7 8 8 8 9 10 9 9 9 9 9 7 6 7 7 7
10 8 4 6 7 8 7 8 9 5 8 7 3 1 4 4 9 7 9 3 1 8 3 2 2 1 1 1 1 2 5 7 8 2 2 6 6 6 3 7 9 9 9 10 6 3 4 5 7 9 9 7 7 6 5 2 1 4 5 5 3 5 9 11 9 6 5 5 5 6 7 7 8 8 9 10 8 8 8 6 6 7 8 6 6 6
9 7 10 15 11 11 13 10 6 5 4 5 4 1 1 5 6 8 12 4 3 1 1 4 3 3 2 4 3 2 2 2 5 5 4 6 6 8 5 3 5 6 7 7 8 7 5 5 4 6 8 8 6 5 3 1 2 5 5 5 5 10 10 6 4 4 5 4 5 5 7 6 8 9 8 8 9 8 7 7 8 7 7 7 6 6
7 5 3 8 11 11 11 12 10 6 5 7 3 7 4 6 4 10 2 3 5 3 0 2 4 2 3 3 1 1 3 5 6 5 4 4 5 6 6 7 7 9 8 6 5 3 6 7 6 6 7 6 6 4 3 1 4 6 6 5 9 10 5 4 4 4 4 5 6 6 6 6 5 7 8 6 7 7 6 5 6 7 8 7 6 7
10 8 7 10 7 7 6 9 8 10 2 1 5 2 2 5 3 4 5 0 2 4 3 1 3 4 4 5 2 3 5 6 5 6 4 2 2 6 8 9 9 9 10 10 14 11 6 8 10 10 9 7 5 5 3 2 6 7 5 9 11 5 4 4 4 4 4 4 5 6 7 7 8 8 7 7 8 9 8 7 7 6 7 7 7 7
6 6 3 7 7 7 10 10 7 6 3 1 3 5 2 3 6 6 6 3 3 3 3 1 1 2 0 2 4 7 5 5 8 7 9 8 4 4 5 7 7 6 7 7 5 8 7 9 9 10 10 7 5 4 4 4 7 7 7 13 6 4 3 4 4 4 5 5 5 5 5 6 6 7 7 9 9 9 9 9 8 8 8 8 8 8
5 7 6 7 5 7 6 5 1 2 4 1 3 3 5 4 4 6 7 5 6 5 4 3 2 3 3 1 3 4 5 6 6 5 5 9 8 6 6 8 8 9 9 8 10 10 7 7 9 11 13 11 6 5 5 4 6 8 10 9 2 4 4 4 4 5 5 5 5 5 5 5 6 7 7 7 9 9 8 8 8 8 6 7 7 7
2 6 1 3 5 4 3 3 2 2 2 3 2 4 6 3 2 3 4 2 1 3 7 3 4 3 3 3 1 4 3 6 7 10 9 8 8 7 5 5 6 7 8 8 8 8 6 7 8 8 10 14 9 5 5 5 5 9 11 2 3 4 4 4 5 5 5 5 5 5 5 6 5 7 8 8 8 9 9 10 9 8 7 6 6 6
3 2 2 4 2 6 7 1 4 3 1 0 1 0 0 2 5 4 2 2 1 1 1 0 2 1 2 2 3 3 6 5 6 8 8 8 10 8 7 6 8 7 7 10 11 9 9 6 9 10 10 12 12 6 5 5 6 9 7 5 3 4 4 4 5 5 5 7 7 6 7 8 6 5 5 6 7 7 8 8 8 8 8 8 8 7
3 3 3 2 1 5 5 3 3 2 2 4 2 3 2 2 1 3 0 0 1 0 1 1 0 1 2 1 3 3 5 4 5 7 8 7 8 9 9 9 9 9 8 7 9 8 8 8 9 11 11 12 12 7 6 6 7 7 7 5 4 4 4 5 6 6 6 6 5 6 7 7 9 10 8 7 8 8 7 7 9 9 10 11 10 10
3 4 4 4 5 4 5 4 3 1 1 1 1 1 2 4 3 3 2 2 1 2 4 4 1 2 0 2 1 2 4 5 3 6 7 8 8 8 9 11 11 10 10 8 7 6 7 8 10 11 12 13 11 8 8 7 7 6 7 6 5 6 6 7 6 6 5 6 6 6 5 6 6 7 7 8 7 8 9 11 10 10 9 9 9 11
3 5 2 3 2 2 8 6 1 4 3 2 0 2 3 2 2 2 2 4 4 4 4 4 6 4 1 2 3 4 5 6 5 4 6 7 7 8 9 11 12 13 13 9 5 5 6 8 9 11 13 13 10 9 10 10 8 6 6 6 6 6 8 7 6 6 7 7 7 7 7 7 7 6 7 7 7 7 4 4 8 8 10 9 10 11
4 6 5 5 6 5 6 6 2 3 0 3 2 5 5 4 4 7 5 4 5 6 6 7 8 8 7 5 4 4 5 5 8 6 7 8 9 7 7 8 11 12 13 13 13 12 9 7 8 9 11 13 10 10 10 10 10 7 6 7 7 8 9 7 7 7 6 7 8 9 8 7 7 7 7 6 7 6 7 6 4 8 8 6 10 10
Wind_Direction
100 99 159 183 208 210 225 177 179 195 148 119 90 110 148 135 343 302 306 268 257 86 237 233 251 258 269 265 267 273 275 228 239 241 241 242 240 234 234 232 229 225 228 232 218 212 211 208 202 193 179 183 184 185 185 183 184 180 181 174 186 183 170 166 168 175 171 175 175 169 189 192 182 175 169 164 176 179 177 168 160 158 158 161 179 196
67 76 247 220 195 196 217 190 124 63 59 121 109 64 341 122 174 242 225 315 328 131 290 295 294 268 256 263 264 273 287 266 224 227 238 238 235 233 229 238 239 235 258 245 231 231 223 215 198 179 175 167 173 198 184 190 193 186 176 183 185 172 181 183 181 177 179 187 192 183 189 171 172 173 176 184 184 176 170 167 168 162 161 167 181 197
47 166 244 226 210 135 87 101 100 118 94 46 118 142 64 325 182 296 320 340 300 81 259 336 323 278 268 260 262 252 252 255 238 213 225 224 234 235 236 242 246 251 250 244 238 229 212 200 188 180 184 188 191 184 187 192 184 187 185 193 182 184 184 188 177 168 186 179 169 169 162 168 158 194 168 150 151 144 159 178 175 176 175 179 198 210
58 294 244 240 146 87 35 77 82 56 65 103 57 72 199 240 113 289 288 326 266 154 267 2 329 287 280 258 252 249 239 250 260 248 246 227 235 234 231 227 234 238 242 238 231 227 207 185 183 176 187 195 182 177 184 182 186 190 193 194 187 188 184 175 178 175 157 147 126 86 118 137 129 172 147 127 134 155 155 191 192 191 177 180 199 207
187 226 271 134 121 121 131 54 88 67 277 330 129 132 187 255 279 168 237 289 298 333 41 338 302 291 288 316 316 286 262 252 265 266 272 259 235 239 253 265 236 237 228 231 241 236 164 169 186 191 195 177 185 189 190 186 187 192 192 188 182 177 178 165 161 162 145 133 111 90 65 79 76 60 125 140 193 188 185 174 199 201 171 182 194 201
273 267 79 112 73 80 101 70 147 120 22 335 253 179 194 157 117 66 2 40 16 346 323 73 343 299 294 290 258 280 348 324 289 251 256 255 250 242 246 243 252 253 240 213 220 206 192 190 190 195 183 189 196 196 198 189 189 181 178 169 167 164 167 165 166 163 157 167 161 154 152 161 174 181 175 197 199 187 195 202 168 172 183 188 198 196
196 9 126 160 132 98 83 131 230 115 172 77 263 167 179 133 118 105 38 58 326 209 291 79 134 279 307 287 280 291 282 269 277 287 270 266 263 242 233 243 243 238 245 252 251 209 180 203 189 201 195 195 194 203 184 187 188 180 170 170 169 172 173 167 164 164 161 168 177 182 186 183 189 190 220 192 165 182 183 147 176 181 184 198 193 197
83 75 81 73 87 103 105 106 246 139 110 221 237 190 104 105 99 128 96 113 229 236 307 6 143 227 301 286 224 244 256 274 299 277 261 257 256 252 253 251 240 240 230 217 215 199 200 193 191 196 196 190 197 186 181 189 185 180 176 170 173 171 172 174 161 167 170 171 173 177 183 182 190 194 195 183 178 162 160 167 173 174 192 199 202 193
162 160 131 130 86 100 173 205 201 127 128 213 220 151 115 129 141 108 93 127 212 30 287 329 348 297 235 273 291 265 271 274 259 258 260 259 265 281 246 239 245 238 233 213 207 199 199 202 207 189 184 198 183 183 186 189 188 181 175 170 167 171 169 173 170 162 174 170 174 179 179 189 199 180 174 169 155 151 166 171 167 178 187 198 205 206
353 165 205 150 139 193 230 297 304 155 98 259 158 79 70 68 63 100 96 68 334 43 269 208 185 228 275 237 272 358 282 283 254 255 266 270 267 252 212 197 171 160 112 196 209 182 202 210 198 190 176 174 193 191 187 183 171 173 168 167 168 174 171 170 173 168 171 171 170 180 189 192 192 178 166 163 168 164 167 178 178 180 184 192 197 204
270 337 158 102 185 188 141 46 87 46 137 123 72 65 24 33 30 18 70 89 44 280 251 196 203 158 288 260 209 158 216 208 275 301 289 322 352 170 194 168 174 176 181 172 138 104 95 224 175 156 171 189 188 188 178 176 175 171 170 168 173 177 171 170 173 172 177 175 178 186 191 195 192 188 172 173 180 170 173 186 186 187 188 186 194 192
2 2 107 300 61 107 92 73 1 58 99 110 90 114 47 341 13 27 343 39 140 263 267 247 199 161 221 292 279 238 270 229 174 230 284 249 193 187 199 205 209 200 197 192 175 173 124 93 128 156 173 183 186 178 183 180 173 171 172 168 170 176 176 171 171 176 181 181 187 190 189 194 195 190 193 193 191 185 187 190 189 185 176 189 187 194
309 233 250 26 269 123 95 82 346 11 4 79 89 70 119 253 33 296 22 254 207 225 242 350 184 30 249 221 266 289 287 288 223 194 182 203 208 239 238 235 225 215 189 197 213 200 189 170 172 184 188 182 187 190 185 182 176 174 172 173 169 182 179 176 173 183 186 188 191 189 191 194 192 198 199 199 198 188 191 189 185 179 190 177 186 199
269 291 34 215 6 238 137 130 184 85 238 118 142 145 117 167 158 238 262 234 303 290 268 353 63 253 271 305 238 250 261 245 241 254 234 173 204 213 227 232 240 237 200 205 212 214 207 208 213 206 196 196 194 194 190 185 180 177 175 176 176 181 181 178 183 187 190 197 195 193 194 194 192 203 199 199 194 187 189 185 190 190 189 189 198 190
211 314 266 132 258 183 190 177 175 174 171 204 121 156 178 153 167 211 183 202 223 221 286 280 94 234 103 247 248 229 246 272 280 264 234 235 217 220 227 206 229 235 228 207 214 212 211 220 215 215 208 204 200 195 192 189 185 175 179 179 182 180 189 185 188 188 195 198 199 198 198 197 197 200 199 202 194 184 187 186 189 191 189 194 198 198
210 213 251 194 227 163 185 210 139 97 104 233 168 79 109 220 122 191 201 162 241 331 336 215 214 189 175 258 278 252 290 301 291 307 280 255 263 315 339 222 222 225 222 210 212 226 237 228 225 222 217 210 203 199 192 192 186 186 190 188 193 191 188 189 190 197 195 199 199 202 203 204 201 196 191 195 190 187 184 185 188 191 192 197 196 196
75 257 297 198 29 177 192 131 197 153 195 228 115 210 210 179 121 93 353 31 96 35 257 151 303 272 301 282 234 249 245 255 300 317 316 294 267 183 229 232 229 227 220 221 213 209 227 230 228 221 214 211 204 200 199 195 192 192 191 194 200 200 188 194 198 197 196 196 196 207 211 212 213 205 197 192 186 181 183 182 188 189 196 195 191 184
156 234 321 131 228 281 157 166 99 6 152 102 189 232 111 96 120 145 212 348 158 210 265 115 233 285 58 283 348 26 51 299 268 255 264 270 283 288 263 259 264 257 220 217 213 213 218 217 218 214 218 212 206 202 199 201 197 198 195 194 197 200 200 201 197 198 194 194 200 203 208 215 219 221 215 200 186 174 175 181 181 185 184 193 189 178
135 255 276 4 202 281 347 131 306 349 14 150 189 211 132 260 262 297 98 239 236 268 272 276 235 261 202 248 129 321 314 298 291 261 256 260 264 261 269 276 280 286 324 203 213 221 229 226 220 210 213 213 208 204 205 203 199 198 201 202 200 205 208 198 195 196 196 193 196 200 206 210 218 223 222 222 197 178 179 180 181 186 190 185 178 170
75 180 281 348 121 302 12 121 203 196 326 37 69 143 172 102 169 149 198 172 121 233 148 283 136 260 196 238 136 233 248 260 268 261 241 243 243 247 254 260 264 298 276 245 237 226 224 225 214 208 206 205 204 201 201 200 201 206 203 200 208 214 210 205 199 192 197 195 192 198 202 215 216 222 222 208 204 200 191 183 180 185 187 189 176 179
240 160 235 283 305 88 194 196 209 155 161 203 136 218 226 27 228 115 308 149 176 186 191 260 293 256 251 188 184 211 227 236 234 234 239 243 245 243 244 251 266 252 235 240 241 241 233 230 224 224 217 212 207 202 195 197 203 208 203 204 201 204 208 210 207 194 201 188 200 196 204 208 210 220 225 222 207 204 203 189 183 184 184 168 185 172
179 160 188 172 61 223 238 220 187 181 184 179 180 197 186 144 153 166 264 34 123 177 239 145 261 281 262 163 191 204 229 251 239 221 241 250 249 247 245 241 230 247 244 239 252 251 250 234 232 234 232 220 199 205 205 207 203 209 208 206 204 209 212 207 207 201 196 198 197 202 204 205 207 210 216 223 215 207 202 196 189 180 164 179 180 175
168 154 116 189 202 206 219 256 284 235 266 249 188 217 183 184 143 140 212 257 5 249 162 165 245 268 207 160 153 175 202 193 178 163 202 225 233 234 234 247 282 243 245 239 246 254 233 225 226 215 209 215 214 211 207 207 206 210 211 204 208 206 217 202 204 197 194 197 199 205 202 202 206 204 212 219 219 213 199 197 192 180 176 177 173 185
82 113 151 282 330 316 337 324 19 32 160 270 265 103 103 198 189 179 183 190 164 233 227 252 227 265 291 27 352 291 249 256 232 201 193 206 244 266 278 249 231 255 297 318 315 297 257 237 229 219 229 228 223 218 217 215 213 215 212 208 201 211 208 201 203 196 194 198 203 199 198 204 203 204 209 215 216 216 205 194 193 187 185 178 171 180
167 256 154 157 11 340 347 345 354 339 60 170 209 208 181 198 176 194 111 114 188 209 200 151 238 253 247 341 71 25 34 179 242 271 251 302 285 234 255 275 277 258 275 282 278 281 307 227 214 219 220 222 225 226 222 219 218 215 216 205 206 208 198 203 197 194 198 194 199 200 202 207 201 207 209 214 211 215 206 201 193 191 189 178 179 180
183 184 154 180 207 212 223 197 202 207 203 225 206 211 193 184 178 117 231 202 225 244 205 204 245 258 256 54 14 5 16 347 307 313 330 221 235 261 253 243 248 230 226 241 257 266 245 232 235 237 230 228 228 224 224 223 221 222 220 216 206 204 200 205 193 197 192 195 199 205 207 208 206 209 208 208 210 208 203 199 195 193 195 184 182 179
174 219 196 197 200 220 220 202 234 134 87 173 235 193 211 204 185 189 134 188 219 227 227 228 235 256 269 264 248 292 358 293 298 323 325 321 318 298 282 298 310 295 269 252 245 250 275 273 244 236 231 225 226 227 233 232 226 219 217 219 213 209 203 199 191 195 194 199 204 208 213 208 211 208 207 206 205 200 200 201 198 193 194 189 184 180
75 203 233 219 230 230 151 151 72 164 178 203 202 213 209 195 186 187 191 223 216 212 252 236 233 247 261 263 256 276 280 282 279 271 286 288 283 297 316 316 297 290 274 273 275 262 250 249 250 243 235 228 229 229 238 239 240 232 221 221 214 208 204 197 188 193 200 198 208 215 217 211 208 207 207 203 199 198 200 199 200 198 193 188 189 186
136 183 297 72 266 221 131 122 55 76 204 212 215 217 206 208 191 198 218 228 208 200 234 245 210 228 253 265 258 227 248 244 246 256 244 245 284 313 316 313 296 281 280 280 268 270 271 268 263 257 249 241 243 240 237 240 242 244 242 235 223 208 210 190 183 198 200 201 210 220 215 203 204 204 203 199 197 198 199 199 199 196 192 194 195 189
91 245 89 75 298 300 227 112 59 59 355 335 283 232 228 214 219 213 224 229 225 231 239 253 251 240 250 264 271 238 249 230 247 253 285 298 274 269 283 291 286 275 268 271 275 276 276 275 272 261 251 239 226 230 230 230 229 227 229 237 234 223 219 176 197 199 202 206 217 220 202 199 197 198 196 198 199 199 195 195 196 193 196 197 194 188
128 269 67 40 336 278 273 140 148 190 153 255 272 263 239 231 228 231 241 255 263 264 258 260 270 273 257 258 299 259 258 286 293 284 271 265 276 272 260 251 257 265 273 273 271 272 274 277 267 263 259 250 236 230 228 227 228 224 223 229 224 222 214 189 201 207 203 214 221 213 198 198 202 189 198 200 195 194 192 194 191 195 197 196 194 189
137 235 70 104 221 272 275 254 223 200 207 229 245 250 249 238 241 222 221 217 221 232 243 257 264 258 268 256 248 274 299 286 273 273 278 278 261 260 261 262 260 265 270 269 271 275 278 271 268 264 261 259 252 242 235 233 229 214 222 224 221 220 190 194 207 208 212 219 217 206 205 204 193 195 202 191 198 191 192 187 190 195 195 194 195 193
171 141 157 143 212 236 278 139 178 136 116 263 247 236 229 233 230 240 241 228 224 218 231 231 240 253 273 276 262 278 276 269 276 275 272 263 249 248 266 269 268 266 265 267 268 267 266 267 268 267 267 265 261 253 241 232 226 220 226 221 225 177 179 204 209 212 218 220 214 210 207 197 195 200 198 199 191 187 183 189 193 196 193 198 194 182
152 158 175 176 185 229 189 129 130 139 225 233 242 198 188 213 215 228 238 238 236 206 220 225 256 279 276 270 259 262 272 268 265 268 258 250 289 287 268 262 260 263 268 267 262 262 269 275 277 279 274 272 272 256 255 233 226 234 233 226 170 180 202 202 215 216 224 222 218 210 200 197 196 201 202 190 187 185 189 192 200 198 194 187 184 192
171 178 180 181 156 216 199 116 198 227 233 243 272 201 198 205 211 217 229 232 238 239 240 245 247 248 253 257 262 262 259 263 265 273 290 83 219 250 259 274 279 271 269 279 289 286 282 282 291 294 294 289 275 268 253 252 228 239 217 190 198 201 203 212 216 221 225 225 220 200 201 201 200 203 196 190 188 188 195 197 197 192 192 189 190 191
180 177 148 200 146 113 150 177 233 233 225 315 275 246 353 226 212 231 283 257 240 234 232 237 240 245 250 255 257 257 264 278 291 287 308 182 219 244 260 265 283 299 303 295 294 297 299 299 290 282 282 286 298 290 278 265 257 208 227 188 199 203 209 206 215 224 223 228 215 208 206 199 202 203 193 188 188 192 199 197 194 194 190 185 190 195
164 151 164 215 186 215 191 215 235 353 315 276 274 248 162 173 172 175 226 240 231 228 223 229 237 243 248 253 256 270 281 308 306 326 345 344 350 345 346 299 296 296 295 301 308 298 298 304 305 297 296 303 306 304 293 288 267 226 215 195 216 204 206 197 214 220 220 222 212 210 204 200 199 197 189 187 189 197 198 194 195 194 176 181 188 188
171 178 184 200 211 191 217 240 247 219 236 250 237 251 149 190 177 184 190 258 242 215 216 221 234 240 248 259 269 264 329 356 290 298 333 345 3 348 341 331 321 312 309 304 311 309 318 320 317 307 304 308 312 297 300 306 251 205 221 236 232 214 218 212 226 225 219 220 215 209 198 198 194 194 189 187 196 197 197 192 193 189 180 185 184 191
233 212 199 198 195 185 207 214 224 227 236 240 266 199 209 192 195 133 184 250 249 269 214 218 227 238 251 262 275 358 13 258 263 148 295 331 322 343 333 318 320 309 307 300 274 301 313 313 312 302 313 324 318 307 321 304 221 187 231 237 231 217 222 228 234 225 220 222 208 199 197 193 192 190 186 192 196 189 189 190 191 182 175 187 184 191
185 191 171 238 217 214 208 224 229 206 251 241 247 256 237 172 124 116 222 237 312 331 322 33 66 85 43 32 184 163 197 237 262 248 262 295 282 287 283 305 324 325 318 318 311 248 264 290 326 323 321 318 301 299 299 290 249 248 253 256 231 225 232 233 232 225 223 214 197 197 192 188 188 188 185 190 188 188 190 173 160 171 177 184 179 178
193 196 193 207 211 220 221 239 248 270 258 256 238 235 115 138 132 178 214 182 200 260 334 103 98 108 124 57 33 66 237 211 260 276 299 284 311 306 293 265 264 274 282 295 302 320 322 313 298 285 287 288 284 288 280 232 251 261 259 259 243 243 243 248 233 214 210 199 193 193 193 188 187 185 189 185 183 176 167 168 171 166 169 172 167 164
203 210 225 207 216 220 225 232 243 269 229 216 255 164 173 115 197 216 169 147 141 149 243 109 106 145 136 115 151 212 246 257 267 265 250 262 262 272 280 299 317 322 317 307 290 308 325 319 309 297 292 279 283 281 268 231 250 259 266 260 251 250 260 236 222 204 190 187 191 192 187 185 184 180 175 165 149 152 162 165 159 167 166 164 164 169
179 193 188 204 203 226 210 238 238 242 287 179 154 52 142 194 235 127 134 191 178 160 137 123 93 21 32 358 318 292 303 313 313 313 303 240 276 319 327 327 326 324 321 326 327 327 343 322 316 309 296 297 291 280 255 228 258 268 265 259 256 260 241 227 208 194 190 187 183 184 180 177 171 166 158 159 160 158 161 159 157 161 158 159 162 167
189 206 193 212 182 207 194 213 210 219 173 253 137 188 229 190 164 169 134 148 190 157 174 171 227 209 39 334 319 325 318 314 317 324 324 321 338 326 313 310 308 309 310 305 278 283 317 313 307 306 304 296 284 269 242 217 264 268 268 262 264 248 230 202 189 176 175 184 186 178 180 173 168 160 159 159 157 159 155 162 163 162 168 167 166 167
205 196 188 202 213 193 203 214 197 173 154 209 141 149 167 187 158 169 141 165 155 206 180 152 189 220 215 228 281 288 312 309 297 295 301 302 315 323 319 311 308 306 305 304 303 306 309 296 296 306 305 302 292 268 249 221 240 271 265 270 216 222 200 197 185 178 182 179 177 174 171 161 162 163 161 162 158 156 161 160 159 163 173 165 169 171
256 196 168 112 251 238 268 226 183 66 78 62 89 137 144 190 249 156 128 111 232 181 167 156 179 199 235 217 203 295 265 289 312 312 314 308 309 308 304 301 302 301 303 303 302 300 291 300 298 293 293 299 296 270 252 238 222 254 265 282 224 218 204 188 186 189 185 175 173 176 165 162 167 166 165 163 167 164 165 163 167 164 166 168 174 174
235 156 132 185 268 166 247 156 120 132 67 185 149 49 340 150 185 184 123 184 164 189 181 233 166 180 212 193 198 248 284 297 303 298 297 305 309 310 313 306 303 300 296 302 297 307 311 308 302 295 294 294 297 295 267 247 241 244 272 273 239 228 208 203 197 194 184 180 176 173 172 168 171 168 167 165 159 159 160 163 161 161 166 171 171 175
269 181 145 219 199 162 228 167 198 222 234 253 196 146 194 193 200 212 94 187 139 124 149 275 174 283 160 177 235 244 269 285 296 292 297 297 299 308 312 311 308 307 296 277 287 295 295 294 285 288 289 286 288 300 280 258 253 246 245 239 219 213 211 210 207 200 198 190 183 183 182 177 169 166 169 174 169 163 166 169 168 170 177 178 179 175
192 102 216 184 188 278 308 273 196 105 327 298 71 197 207 167 182 17 17 42 41 16 330 317 247 263 322 294 308 278 298 289 250 269 288 297 305 311 309 309 307 300 298 304 292 285 279 286 291 287 289 286 291 298 288 272 257 239 227 221 204 193 203 219 214 204 195 192 183 190 187 181 178 180 174 176 181 184 178 171 177 181 186 194 182 181
93 190 198 82 57 237 199 236 179 240 261 243 182 158 44 4 123 111 72 26 10 1 336 338 332 344 340 327 325 317 312 309 315 294 291 292 292 296 305 308 309 309 308 304 288 277 278 277 274 281 285 287 294 297 292 286 271 242 224 208 199 193 205 215 218 216 208 195 192 188 183 182 182 181 180 177 177 170 187 215 189 183 177 188 195 196
160 211 148 156 167 231 249 239 175 125 229 240 249 71 46 17 60 60 42 26 15 18 6 12 1 352 357 353 2 359 336 322 316 319 309 303 300 296 293 295 302 307 310 316 322 319 308 292 280 278 282 284 290 288 284 282 274 255 229 211 201 195 206 199 205 217 222 206 206 194 185 180 178 182 176 177 171 173 172 174 199 204 200 184 180 182